[[{"header":{"parameterUnit":"m.s-1","parameterCategory":1,"la1":30.2991,"la2":30.254,"lo1":-89.0895,"lo2":-89.0444,"dy":0.0017,"dx":0.0017,"nx":28,"ny":28,"refTime":"2024-03-22T09:00:00:Z","depth":0,"parameterNumber":2,"parameterNumberName":"U-component_of_WINDS"},"data":[0,0,0,0,0,0,0,0,0,0,0,0,0,0,0,0,0,0,0,0,0,0,0,0,0,0,0,0,0,0,0,0,0,0,0,0,0,0,0,0,0,0,0,0,0,0,0,0,0,0,0,0,0,0,0,0,0,0,2.5769,2.577,0,2.5816,2.5816,2.5817,2.5804,2.5803,2.5802,2.5801,2.5848,2.585,2.5852,0,0,0,0,0,0,0,0,0,0,0,0,0,2.567,2.5672,2.5769,2.577,2.577,2.5815,2.5816,2.5817,2.5804,2.5803,2.5802,2.5801,2.5847,2.5849,2.5852,0,0,0,0,0,0,0,0,0,0,0,0,0,2.5714,2.5673,2.5769,2.5769,2.577,2.5815,2.5816,2.5817,2.5804,2.5803,2.5802,2.58,2.5846,2.5849,2.5852,2.59,0,0,2.5862,2.5863,0,0,0,0,0,0,0,0,2.5712,2.5718,2.5769,2.5769,2.577,2.5803,2.5798,2.5845,2.5805,2.5791,2.5801,2.58,2.5834,2.5838,2.5849,2.5902,2.5904,2.5862,2.5864,2.5865,2.5866,0,0,0,0,0,0,0,2.5709,2.5716,2.5787,2.5769,2.577,2.5768,2.5772,2.5807,2.582,2.5792,2.5791,2.5797,2.5834,2.5846,2.585,2.5904,2.5862,2.5865,2.5867,2.5868,2.6001,2.6003,0,0,0,0,0,0,2.5705,2.5714,2.5786,2.5789,2.5737,2.577,2.5776,2.5794,2.5819,2.5822,2.5798,2.5796,2.5842,2.5847,2.5852,2.5911,2.5865,2.5868,2.587,2.6,2.6002,2.6003,0,0,0,0,0,0,2.5703,2.5712,2.5784,2.5751,2.576,2.5774,2.5794,2.5795,2.5808,2.5824,2.5826,2.5809,2.5841,2.5848,2.5889,2.5913,2.587,2.5873,2.5998,2.6,2.6003,2.6029,0,0,0,0,0,0,2.57,2.5711,2.5729,2.5752,2.5762,2.582,2.5795,2.5797,2.5814,2.5811,2.5834,2.5837,2.584,2.5884,2.5892,2.5916,2.5875,2.5996,2.5999,2.6002,2.6026,2.6032,2.6037,0,0,0,0,0,2.5697,2.5734,2.573,2.5739,2.5784,2.5821,2.5827,2.583,2.5815,2.5834,2.5845,2.5836,2.5909,2.5888,2.5897,2.5923,2.5994,2.5998,2.6002,2.6024,2.6031,2.6037,0,0,0,0,0,0,2.5712,2.5736,2.5733,2.5778,2.5798,2.5819,2.5842,2.5838,2.5862,2.5859,2.5862,2.5867,2.591,2.592,2.5897,2.5972,2.5949,2.5955,2.5963,2.597,2.5976,2.5973,2.5878,0,0,0,0,0,2.5721,2.5749,2.5768,2.5806,2.5817,2.5828,2.5844,2.5845,2.5866,2.5874,2.5887,2.5908,2.5935,2.5953,2.5979,2.6028,2.6034,2.605,2.6055,2.606,2.6065,2.6094,2.6102,2.6016,2.6016,2.6016,0,0,2.5739,2.5756,2.5773,2.581,2.5825,2.5855,2.5835,2.5866,2.5888,2.5878,2.5919,2.593,2.5953,2.5998,2.6019,2.6008,2.609,2.6065,2.6068,2.6071,2.6099,2.6107,2.6114,2.6018,2.6018,2.6017,0,0,2.5787,2.5802,2.5836,2.5853,2.5878,2.5885,2.5894,2.5917,2.5924,2.5965,2.5959,2.5985,2.6032,2.605,2.6064,2.6123,2.6117,2.6131,2.616,2.6189,2.6196,2.6202,2.6224,2.6232,2.6136,2.6136,2.6136,0,2.5806,2.585,2.5854,2.5887,2.5905,2.5899,2.5934,2.595,2.5982,2.5994,2.5982,2.6043,2.6057,2.6109,2.6123,2.6135,2.6146,2.6128,2.6194,2.62,2.6206,2.6228,2.6236,2.6138,2.6138,2.6137,2.6137,0,2.5874,2.5905,2.593,2.5962,2.5982,2.6016,2.6026,2.6046,2.6046,2.6056,2.6099,2.6117,2.6148,2.616,2.6159,2.6212,2.6205,2.6193,2.6171,2.6216,2.6236,2.6245,2.614,2.614,2.6139,2.6139,0,0,2.5931,2.5968,2.5977,2.5993,2.602,2.6045,2.6079,2.6111,2.6129,2.6151,2.6181,2.6223,2.6214,2.6231,2.6233,2.6257,2.6305,2.6243,2.6244,2.6256,2.6366,2.6375,2.6385,2.6301,2.6303,2.6304,2.6365,0,2.5983,2.6044,2.605,2.6106,2.6136,2.6132,2.6162,2.6183,2.6194,2.6221,2.6232,2.6262,2.6246,2.6257,2.6281,2.6294,2.6328,2.629,2.633,2.6332,2.6325,2.6395,2.6404,2.646,2.6373,2.6374,2.6375,0,2.6051,2.6078,2.6136,2.6163,2.6176,2.6203,2.6234,2.6259,2.6284,2.629,2.6311,2.631,2.6347,2.6324,2.6376,2.635,2.6367,2.6376,2.6378,2.6383,2.6356,2.6402,2.6478,2.6487,2.6387,2.6386,2.6385,0,2.6089,2.6139,2.6182,2.6195,2.6227,2.6246,2.626,2.6284,2.6303,2.633,2.6343,2.6373,2.639,2.6414,2.6423,2.6405,2.6475,2.6452,2.6482,2.6482,2.6497,2.6496,2.6578,2.6507,2.6507,2.6506,2.6506,0,2.6147,2.6183,2.62,2.6226,2.6267,2.6275,2.6315,2.6328,2.635,2.6379,2.6377,2.6405,2.6414,2.6443,2.645,2.6493,2.65,2.6507,2.6509,2.6508,2.6507,2.6519,2.6516,2.6509,2.6508,2.6508,2.6507,0,2.6196,2.6208,2.6255,2.6282,2.629,2.6319,2.6343,2.6368,2.6379,2.6417,2.6426,2.6443,2.6478,2.6489,2.653,2.6535,2.6586,2.6583,2.6578,2.6578,2.6609,2.6606,2.6702,2.6715,2.6634,2.6635,2.6635,0,2.6232,2.6261,2.6292,2.6312,2.6327,2.6359,2.6379,2.6388,2.641,2.6442,2.6464,2.6499,2.6527,2.6584,2.66,2.6632,2.6631,2.6663,2.6636,2.6635,2.6634,2.6632,2.6636,2.6668,2.6668,2.6669,2.667,0,2.6296,2.6302,2.6331,2.6365,2.639,2.6416,2.6441,2.6457,2.647,2.6494,2.6531,2.6553,2.6597,2.6632,2.6666,2.6681,2.6678,2.6678,2.6687,2.6687,2.6683,2.6688,2.6593,2.6676,2.6675,2.6675,2.6674,2.6674,2.6341,2.6367,2.6394,2.6428,2.6448,2.6473,2.6499,2.6514,2.6545,2.6582,2.6586,2.6625,2.6652,2.6697,2.6714,2.6746,2.6737,2.6749,2.6753,2.6756,2.6759,2.6678,2.6752,2.6752,2.6751,2.6751,2.6751,0,2.6406,2.6424,2.6455,2.6492,2.6519,2.6515,2.6543,2.6567,2.6602,2.6627,2.6656,2.6699,2.6734,2.6754,2.6789,2.6811,2.6811,2.682,2.6819,2.6823,2.6764,2.6754,2.682,2.682,2.682,2.682,2.682,2.682,2.6444,2.6488,2.6497,2.6553,2.657,2.661,2.6627,2.665,2.667,2.6719,2.6749,2.6762,2.6786,2.6823,2.6856,2.6861,2.6874,2.6885,2.6889,2.6834,2.6827,2.682,2.681,2.6887,2.6887,2.6945,2.6946,2.6946]},{"header":{"parameterUnit":"m.s-1","parameterCategory":1,"la1":30.2991,"la2":30.254,"lo1":-89.0895,"lo2":-89.0444,"dy":0.0017,"dx":0.0017,"nx":28,"ny":28,"refTime":"2024-03-22T09:00:00:Z","depth":0,"parameterNumber":3,"parameterNumberName":"V-component_of_WINDS"},"data":[0,0,0,0,0,0,0,0,0,0,0,0,0,0,0,0,0,0,0,0,0,0,0,0,0,0,0,0,0,0,0,0,0,0,0,0,0,0,0,0,0,0,0,0,0,0,0,0,0,0,0,0,0,0,0,0,0,0,-7.2602,-7.2602,0,-7.2608,-7.2608,-7.2608,-7.256,-7.2558,-7.2557,-7.2556,-7.2558,-7.256,-7.2561,0,0,0,0,0,0,0,0,0,0,0,0,0,-7.2549,-7.255,-7.2602,-7.2602,-7.2602,-7.2608,-7.2608,-7.2608,-7.256,-7.2558,-7.2557,-7.2555,-7.2558,-7.2559,-7.2561,0,0,0,0,0,0,0,0,0,0,0,0,0,-7.2565,-7.255,-7.2602,-7.2579,-7.2577,-7.2608,-7.2608,-7.2608,-7.256,-7.2558,-7.2556,-7.2554,-7.2557,-7.2559,-7.2561,-7.2613,0,0,-7.2567,-7.2568,0,0,0,0,0,0,0,0,-7.2564,-7.2567,-7.2582,-7.2581,-7.2578,-7.2581,-7.259,-7.261,-7.2561,-7.2566,-7.2556,-7.2553,-7.2567,-7.2568,-7.2574,-7.2613,-7.2613,-7.2567,-7.2569,-7.2569,-7.257,0,0,0,0,0,0,0,-7.2563,-7.2566,-7.2604,-7.2583,-7.258,-7.2568,-7.2568,-7.2593,-7.2578,-7.2566,-7.2562,-7.2564,-7.2566,-7.2572,-7.2573,-7.2614,-7.2567,-7.2569,-7.257,-7.2571,-7.2699,-7.2701,0,0,0,0,0,0,-7.2565,-7.2566,-7.2604,-7.2604,-7.2566,-7.2571,-7.2571,-7.2582,-7.2577,-7.2575,-7.2565,-7.2562,-7.2569,-7.2571,-7.2573,-7.2635,-7.2569,-7.2571,-7.2572,-7.2697,-7.27,-7.2702,0,0,0,0,0,0,-7.2564,-7.2569,-7.2604,-7.2584,-7.2588,-7.2574,-7.2587,-7.2583,-7.2589,-7.2577,-7.2574,-7.2575,-7.2568,-7.257,-7.2604,-7.2635,-7.2572,-7.2574,-7.2694,-7.2698,-7.2701,-7.276,0,0,0,0,0,0,-7.2563,-7.2569,-7.2589,-7.2585,-7.2589,-7.2635,-7.2589,-7.2585,-7.2593,-7.2588,-7.2585,-7.2582,-7.2566,-7.2602,-7.2606,-7.2636,-7.2575,-7.2691,-7.2696,-7.27,-7.2755,-7.2764,-7.2773,0,0,0,0,0,-7.2561,-7.2604,-7.259,-7.2595,-7.2613,-7.2637,-7.2639,-7.2621,-7.2596,-7.2615,-7.2608,-7.2583,-7.2631,-7.2606,-7.261,-7.2641,-7.2689,-7.2695,-7.2699,-7.2751,-7.2763,-7.2773,0,0,0,0,0,0,-7.2609,-7.2602,-7.2587,-7.263,-7.2635,-7.2629,-7.2653,-7.2634,-7.2645,-7.2639,-7.2615,-7.2615,-7.2653,-7.2651,-7.2623,-7.2693,-7.2656,-7.2662,-7.2693,-7.2704,-7.2713,-7.2713,-7.2577,0,0,0,0,0,-7.2625,-7.2646,-7.2638,-7.2677,-7.268,-7.2667,-7.2676,-7.2662,-7.2666,-7.2667,-7.2662,-7.2666,-7.2682,-7.2693,-7.2707,-7.2755,-7.2754,-7.2779,-7.2788,-7.2795,-7.28,-7.2827,-7.2839,-7.2718,-7.2718,-7.2718,0,0,-7.2657,-7.2656,-7.267,-7.2686,-7.2688,-7.2711,-7.2668,-7.2692,-7.2709,-7.267,-7.2703,-7.27,-7.2702,-7.2744,-7.2762,-7.2743,-7.2834,-7.2801,-7.2807,-7.2809,-7.2834,-7.2845,-7.2855,-7.2722,-7.2721,-7.2721,0,0,-7.2727,-7.2728,-7.2761,-7.2765,-7.277,-7.2761,-7.2769,-7.2768,-7.2765,-7.2797,-7.277,-7.2788,-7.2816,-7.282,-7.2826,-7.2902,-7.2879,-7.2907,-7.2953,-7.298,-7.2989,-7.2998,-7.3026,-7.3036,-7.2913,-7.2913,-7.2913,0,-7.2765,-7.2798,-7.278,-7.2808,-7.2816,-7.2785,-7.2819,-7.2823,-7.2832,-7.2838,-7.2817,-7.2854,-7.2853,-7.2897,-7.2916,-7.2921,-7.293,-7.2907,-7.299,-7.2998,-7.3005,-7.3032,-7.3042,-7.2916,-7.2916,-7.2915,-7.2915,0,-7.2846,-7.287,-7.2896,-7.2908,-7.292,-7.295,-7.2937,-7.2951,-7.2937,-7.293,-7.2965,-7.2964,-7.2979,-7.2988,-7.2973,-7.303,-7.3018,-7.2994,-7.2956,-7.3021,-7.3045,-7.3055,-7.2921,-7.292,-7.2919,-7.2918,0,0,-7.2943,-7.2948,-7.2958,-7.2964,-7.2969,-7.2987,-7.3017,-7.3033,-7.3046,-7.3053,-7.3078,-7.3104,-7.3083,-7.309,-7.3075,-7.3099,-7.3161,-7.3072,-7.3071,-7.3089,-7.3225,-7.3243,-7.3255,-7.3146,-7.3148,-7.315,-7.3225,0,-7.3012,-7.3065,-7.3051,-7.3103,-7.3126,-7.3098,-7.3124,-7.313,-7.3126,-7.3144,-7.3138,-7.3158,-7.3128,-7.3132,-7.3154,-7.3149,-7.3188,-7.3143,-7.3169,-7.317,-7.3169,-7.3268,-7.3287,-7.3358,-7.3234,-7.3236,-7.3237,0,-7.3099,-7.3114,-7.3168,-7.3173,-7.3182,-7.3205,-7.3221,-7.3238,-7.3245,-7.324,-7.325,-7.3232,-7.3262,-7.3225,-7.3266,-7.3236,-7.3246,-7.3245,-7.3247,-7.3249,-7.3207,-7.3272,-7.338,-7.3391,-7.3252,-7.325,-7.3249,0,-7.3166,-7.3199,-7.3237,-7.3243,-7.3248,-7.3266,-7.3269,-7.3274,-7.3286,-7.3299,-7.3306,-7.3322,-7.333,-7.3343,-7.333,-7.3304,-7.3374,-7.3335,-7.3371,-7.3371,-7.3386,-7.3385,-7.3497,-7.3392,-7.3392,-7.3392,-7.3392,0,-7.3244,-7.3279,-7.3267,-7.329,-7.3329,-7.3314,-7.3353,-7.3352,-7.3358,-7.338,-7.3357,-7.3378,-7.336,-7.338,-7.337,-7.3407,-7.341,-7.3407,-7.3404,-7.341,-7.341,-7.3415,-7.341,-7.3395,-7.3394,-7.3394,-7.3393,0,-7.3324,-7.3318,-7.3358,-7.3361,-7.3363,-7.3392,-7.3394,-7.3416,-7.3412,-7.3441,-7.3447,-7.3439,-7.3462,-7.3451,-7.3473,-7.3467,-7.3514,-7.3504,-7.3513,-7.351,-7.3547,-7.3544,-7.3666,-7.3681,-7.3567,-7.3568,-7.3569,0,-7.3375,-7.3401,-7.3409,-7.3424,-7.343,-7.3453,-7.3466,-7.3453,-7.3467,-7.3479,-7.3499,-7.352,-7.3537,-7.3574,-7.357,-7.3588,-7.3579,-7.362,-7.3581,-7.3586,-7.358,-7.3579,-7.3582,-7.3628,-7.3629,-7.363,-7.3631,0,-7.3465,-7.3462,-7.3482,-7.3502,-7.3519,-7.3534,-7.3546,-7.3559,-7.3546,-7.3564,-7.3588,-7.3601,-7.3626,-7.3648,-7.3664,-7.3666,-7.3647,-7.3644,-7.3653,-7.3659,-7.3663,-7.3662,-7.3534,-7.3641,-7.364,-7.3639,-7.3639,-7.3638,-7.3532,-7.3556,-7.3567,-7.3591,-7.36,-7.3613,-7.3634,-7.3634,-7.3655,-7.3676,-7.3666,-7.3695,-7.3703,-7.3724,-7.3729,-7.3751,-7.3734,-7.3747,-7.3751,-7.3754,-7.376,-7.366,-7.3754,-7.3753,-7.3753,-7.3753,-7.3753,0,-7.3622,-7.3629,-7.3651,-7.3672,-7.3691,-7.3674,-7.3688,-7.3705,-7.3731,-7.3741,-7.3759,-7.3788,-7.381,-7.3809,-7.3829,-7.3847,-7.3839,-7.3853,-7.3851,-7.3852,-7.3773,-7.3763,-7.3859,-7.3859,-7.3859,-7.3859,-7.3859,-7.3859,-7.3671,-7.3712,-7.371,-7.3755,-7.376,-7.379,-7.38,-7.3812,-7.3821,-7.3855,-7.3874,-7.3874,-7.3881,-7.3901,-7.3921,-7.392,-7.3929,-7.3946,-7.3942,-7.3868,-7.3857,-7.3847,-7.3838,-7.3948,-7.3948,-7.4019,-7.402,-7.4021]}]]